Wind_Speed
40 40 39 39 40 40 39 39 39 39 38 37 37 37 37 36 35 34 34 33 33 33 33 33 33 33 32 33 33 32 32 32 32 32 31 31 30 30 30 30 31 31 31
41 41 41 40 40 40 41 41 40 41 41 40 40 40 39 38 38 37 36 35 35 34 34 34 35 35 34 34 34 34 34 34 34 33 33 33 33 32 32 31 32 33 33
42 42 42 42 41 41 42 42 42 42 42 42 41 41 41 40 40 39 39 38 38 37 37 37 36 36 36 35 35 35 35 35 35 35 34 34 34 33 33 34 33 34 34
43 43 44 44 43 43 44 44 43 43 43 43 43 43 42 41 41 41 40 39 39 38 38 37 37 37 37 36 36 36 36 36 36 36 35 35 35 35 35 35 35 35 35
44 44 44 44 44 45 45 46 46 45 45 45 44 44 44 43 43 42 41 40 40 39 38 38 37 37 38 37 37 37 37 37 37 37 37 36 36 36 36 36 36 36 36
45 45 45 45 45 45 45 46 46 46 46 46 46 45 45 45 44 43 42 42 42 41 40 40 39 38 38 39 39 39 38 37 37 37 37 38 37 37 37 37 37 38 38
45 45 46 46 46 46 46 47 47 47 47 47 47 46 45 45 45 45 44 44 43 43 42 41 40 40 39 39 38 39 39 38 37 37 37 37 38 38 38 38 38 38 38
45 46 46 47 47 46 47 47 47 47 47 47 47 46 46 45 46 46 46 45 45 44 43 42 42 42 41 40 39 39 38 38 39 38 39 39 39 39 39 39 39 39 39
47 46 46 46 46 46 46 46 46 46 46 46 46 45 45 45 46 46 46 46 46 45 45 44 43 43 43 42 42 41 41 41 40 40 40 40 40 40 40 40 40 40 40
46 46 45 45 45 44 44 45 45 45 45 45 46 46 45 46 45 45 45 46 46 45 45 45 44 44 44 44 43 43 41 41 40 40 40 40 41 41 41 42 41 41 42
44 44 44 44 44 44 44 44 44 45 44 44 45 45 45 45 45 44 44 44 45 45 45 44 45 45 45 45 45 45 44 42 42 41 41 41 41 42 42 42 42 42 42
43 43 42 42 43 44 44 44 44 44 44 44 44 45 46 46 44 44 45 46 45 45 45 45 45 45 45 45 46 45 46 45 44 44 43 43 43 43 42 43 42 42 42
42 42 41 42 43 43 44 43 43 44 43 43 44 44 45 46 45 45 46 46 46 46 46 45 45 45 45 46 46 46 46 46 46 46 45 45 44 44 44 44 43 43 43
42 42 42 42 42 42 43 43 42 42 42 42 43 43 43 44 45 45 46 46 46 46 46 45 45 46 45 46 47 47 47 47 46 46 46 45 45 45 45 45 45 45 45
41 40 41 40 40 41 41 42 42 42 42 41 41 42 43 44 44 45 45 45 45 45 46 46 46 46 46 46 47 47 47 47 47 46 46 46 46 46 46 45 45 46 46
40 39 39 38 39 39 40 40 41 41 41 41 41 41 41 42 42 43 43 44 45 45 45 45 46 47 47 46 46 47 48 48 48 48 47 46 47 47 47 47 47 47 48
40 39 39 39 39 38 39 40 41 41 41 41 41 41 41 41 41 42 42 43 43 44 44 44 45 46 47 47 47 48 48 48 48 48 48 48 48 48 49 48 49 49 48
39 38 38 38 38 39 39 40 40 40 41 41 41 41 41 41 41 41 41 41 42 43 44 44 45 46 47 47 47 48 48 48 49 48 48 49 49 49 50 50 50 50 49
37 37 37 38 38 38 39 40 40 40 39 40 40 40 40 40 40 40 41 41 41 42 43 43 44 45 46 47 47 47 46 47 49 49 49 49 49 49 49 50 50 50 49
35 36 37 37 37 37 38 39 39 39 39 39 39 39 39 40 40 39 39 40 41 41 42 43 43 44 45 46 47 47 47 47 47 48 49 49 49 50 50 49 49 49 49
34 35 36 36 36 36 37 37 37 38 37 37 38 38 39 40 39 39 39 40 40 40 40 40 41 42 43 44 45 46 47 47 48 48 49 49 49 49 49 49 49 48 49
32 33 34 34 34 34 35 35 35 36 36 36 36 37 37 38 38 38 38 38 38 38 39 39 39 40 40 41 42 43 44 45 46 47 47 47 47 47 48 48 48 48 48
32 32 32 33 33 33 33 34 34 34 34 35 35 35 35 36 36 37 36 37 37 37 37 38 38 39 39 39 40 41 42 43 43 44 45 45 45 45 46 46 47 47 46
31 31 31 32 32 33 33 33 33 33 33 33 33 34 35 35 35 36 35 36 36 37 37 38 39 39 39 39 39 40 40 40 41 42 43 43 43 43 43 43 43 44 45
30 30 31 31 31 31 31 32 32 32 32 31 32 33 34 34 35 35 35 35 36 36 36 37 38 39 39 39 39 39 39 39 40 40 41 41 41 40 40 40 41 41 41
29 30 30 30 29 30 30 30 30 30 30 30 30 31 31 32 33 33 33 34 35 35 35 36 36 37 37 38 38 38 38 38 39 39 39 38 38 38 38 38 38 38 38
Wind_Direction
260 260 261 261 261 261 261 261 260 260 261 261 261 261 261 261 262 262 263 264 263 262 262 263 265 266 266 264 263 264 265 265 265 266 266 268 268 269 270 270 270 271 272
260 259 260 261 261 261 261 261 260 260 260 261 262 262 262 262 263 262 262 262 262 262 262 263 264 265 266 265 264 264 265 266 267 266 267 268 269 269 269 271 271 271 272
259 259 259 259 260 261 260 260 260 259 260 260 261 261 262 263 263 262 262 261 261 261 262 262 264 264 264 265 264 263 264 265 266 267 268 269 269 269 270 271 272 273 273
260 260 259 259 260 260 260 260 260 260 259 259 260 261 261 261 262 261 261 261 260 260 260 261 262 263 263 264 264 264 264 264 264 266 267 267 269 270 271 273 272 273 273
261 260 260 260 260 260 259 259 259 260 259 259 259 260 260 259 259 260 260 259 259 259 260 260 262 262 260 261 262 263 264 264 264 265 265 266 268 270 271 272 272 272 273
262 261 261 261 260 260 259 259 259 260 260 260 260 260 259 258 258 258 258 258 258 259 259 260 260 260 260 260 261 262 263 264 263 265 266 266 268 270 270 271 272 273 273
263 262 262 261 261 261 261 260 260 260 260 260 260 260 259 258 257 257 258 258 257 257 258 259 259 260 260 261 261 262 262 262 263 265 265 266 268 269 270 271 272 273 274
263 263 263 262 262 262 262 261 260 260 260 260 260 259 257 256 256 257 257 258 257 257 258 259 259 260 260 261 262 262 259 260 263 264 264 266 268 268 270 271 272 273 275
264 263 263 263 262 261 261 260 260 259 259 259 258 258 257 256 256 256 256 256 256 257 258 258 258 259 259 261 262 262 262 263 264 264 264 266 268 269 270 271 272 273 275
265 264 262 261 261 261 261 260 259 259 258 258 259 258 258 257 255 255 255 256 256 256 257 257 257 258 258 259 260 260 261 262 264 265 266 267 268 269 270 272 273 273 274
266 265 263 262 261 261 261 260 260 259 258 258 258 258 258 257 256 256 255 255 256 256 255 256 257 258 258 258 258 258 260 261 263 264 266 267 268 269 270 272 273 274 274
266 265 263 262 262 262 262 261 260 260 259 258 258 258 259 258 259 258 257 256 256 255 254 256 257 257 257 257 257 257 259 260 262 264 266 267 268 268 269 271 271 272 273
266 264 263 263 263 262 261 260 260 260 259 259 259 260 260 259 259 260 259 258 257 255 254 255 256 256 256 256 256 258 259 260 262 263 265 266 267 268 269 270 271 272 272
266 264 263 264 263 262 261 259 259 259 259 259 259 259 259 260 259 259 260 260 258 256 255 256 256 256 257 256 257 258 259 260 262 263 265 267 268 269 270 271 272 273 273
265 264 264 264 263 262 260 259 258 258 259 259 260 260 260 260 260 259 259 259 258 258 257 256 257 257 258 257 258 259 260 261 262 263 265 267 268 269 271 272 272 272 273
264 264 263 263 263 262 261 260 259 258 258 259 259 259 260 261 261 259 259 259 259 258 257 257 257 258 258 259 260 261 261 262 263 263 265 267 268 269 270 272 273 273 273
265 264 264 262 261 261 261 259 259 258 258 258 259 258 259 259 260 259 259 259 260 259 258 258 257 257 258 259 260 261 262 263 264 264 265 267 268 269 271 272 273 273 273
265 265 264 262 261 260 260 259 259 258 258 258 258 258 258 259 259 259 259 261 261 260 260 259 258 259 259 259 261 262 263 263 264 265 266 268 269 270 272 272 273 273 274
265 264 263 262 261 260 259 259 259 259 259 259 258 258 257 258 259 259 261 262 262 261 261 261 260 260 260 261 262 262 263 264 264 265 266 267 268 269 270 271 272 272 273
265 263 262 261 260 260 260 260 258 259 259 259 258 258 257 258 259 260 262 263 263 263 263 262 262 261 261 262 262 263 264 264 265 266 266 268 269 269 270 270 271 271 272
264 263 262 260 259 259 260 260 258 259 260 260 259 259 259 260 260 261 262 263 264 264 264 264 264 263 263 263 264 264 265 265 266 267 268 269 269 270 270 270 271 272 272
263 262 262 260 259 260 259 259 260 260 261 261 261 261 260 260 260 262 262 262 263 264 265 265 265 265 265 265 265 266 266 267 268 269 269 269 270 270 271 271 271 272 272
263 262 261 260 260 259 260 260 260 260 261 261 262 261 260 259 259 260 260 262 263 264 264 265 265 266 267 267 267 267 268 268 268 268 269 270 271 272 272 272 271 271 272
263 260 261 260 260 260 260 260 260 260 262 262 262 262 260 259 259 259 260 262 263 264 265 266 266 266 267 268 268 268 269 269 269 269 269 270 271 272 272 272 272 272 273
261 260 260 261 261 261 260 259 260 261 262 262 263 262 261 260 259 259 260 261 263 265 266 267 267 266 267 269 269 269 269 269 269 270 270 271 271 271 273 272 272 273 274
262 259 260 260 261 260 259 259 260 261 262 263 263 264 263 261 260 260 262 263 264 265 265 266 266 266 267 269 269 270 270 269 270 270 272 272 272 272 273 273 274 274 275
Height
5774 5775 5776 5777 5778 5778 5779 5781 5782 5783 5783 5784 5785 5786 5786 5787 5788 5789 5789 5790 5790 5790 5790 5791 5792 5792 5793 5794 5794 5795 5795 5796 5796 5796 5796 5796 5796 5796 5796 5795 5795 5795 5794
5764 5765 5766 5767 5768 5769 5770 5771 5772 5773 5774 5775 5776 5777 5777 5778 5779 5780 5781 5781 5781 5782 5783 5783 5784 5785 5785 5786 5786 5787 5788 5789 5789 5789 5789 5789 5789 5789 5789 5789 5788 5788 5787
5753 5754 5755 5756 5758 5759 5759 5760 5762 5763 5764 5765 5766 5767 5768 5769 5770 5771 5771 5772 5773 5774 5774 5775 5776 5776 5777 5778 5779 5780 5780 5781 5781 5782 5782 5782 5782 5782 5781 5781 5781 5780 5780
5743 5744 5744 5745 5746 5747 5749 5750 5751 5752 5753 5755 5756 5757 5758 5759 5760 5761 5762 5762 5763 5764 5765 5766 5767 5768 5768 5769 5770 5771 5772 5773 5773 5774 5774 5774 5774 5774 5774 5774 5773 5773 5772
5731 5732 5733 5734 5735 5735 5736 5738 5739 5740 5742 5743 5745 5746 5747 5748 5749 5751 5752 5753 5754 5754 5756 5757 5758 5759 5760 5760 5761 5762 5763 5764 5765 5765 5766 5766 5766 5766 5766 5766 5765 5765 5764
5719 5720 5722 5722 5722 5723 5724 5725 5727 5728 5730 5731 5733 5735 5736 5738 5739 5740 5741 5743 5744 5745 5746 5747 5748 5750 5751 5752 5753 5754 5755 5755 5756 5757 5757 5757 5757 5758 5757 5757 5757 5757 5756
5708 5708 5709 5710 5711 5711 5712 5713 5714 5716 5718 5719 5721 5723 5724 5726 5728 5729 5731 5732 5733 5735 5736 5738 5739 5740 5741 5742 5743 5744 5745 5746 5747 5748 5748 5748 5749 5749 5749 5749 5748 5748 5747
5696 5696 5697 5698 5699 5700 5700 5701 5702 5704 5705 5707 5708 5710 5712 5715 5716 5718 5719 5721 5723 5725 5726 5727 5729 5730 5731 5732 5733 5734 5735 5736 5737 5738 5739 5739 5740 5740 5740 5740 5739 5739 5738
5683 5684 5684 5685 5687 5687 5688 5689 5691 5692 5694 5695 5696 5698 5700 5703 5704 5706 5708 5709 5712 5713 5715 5717 5718 5720 5721 5723 5724 5725 5726 5727 5728 5729 5729 5730 5730 5730 5730 5730 5730 5730 5729
5671 5671 5672 5673 5674 5675 5677 5678 5679 5681 5682 5683 5685 5686 5688 5691 5693 5695 5697 5698 5700 5702 5704 5705 5707 5709 5710 5712 5714 5715 5715 5717 5717 5718 5719 5720 5720 5720 5720 5720 5720 5719 5719
5659 5660 5660 5661 5663 5664 5665 5667 5668 5669 5671 5672 5674 5675 5677 5679 5681 5684 5686 5687 5689 5691 5692 5694 5696 5698 5699 5701 5702 5704 5705 5706 5707 5708 5709 5709 5710 5710 5710 5710 5710 5709 5708
5649 5649 5649 5650 5651 5653 5654 5655 5656 5658 5660 5661 5663 5664 5666 5668 5670 5672 5674 5676 5677 5680 5681 5683 5685 5687 5688 5690 5691 5692 5694 5695 5696 5697 5698 5699 5699 5699 5700 5699 5699 5698 5698
5638 5638 5639 5640 5640 5642 5643 5644 5645 5647 5648 5650 5651 5653 5655 5656 5658 5660 5662 5664 5666 5668 5670 5672 5674 5675 5677 5678 5680 5681 5683 5684 5685 5686 5687 5688 5688 5688 5688 5688 5688 5687 5687
5626 5627 5627 5628 5629 5630 5631 5633 5634 5636 5637 5639 5640 5642 5643 5645 5647 5648 5650 5652 5654 5656 5659 5661 5662 5664 5665 5667 5668 5670 5671 5673 5674 5674 5675 5676 5676 5677 5677 5677 5676 5676 5675
5615 5616 5616 5617 5618 5619 5620 5621 5623 5625 5626 5628 5629 5631 5632 5634 5635 5637 5638 5640 5642 5644 5647 5649 5650 5652 5653 5655 5656 5657 5659 5661 5662 5662 5663 5664 5664 5665 5665 5664 5664 5664 5663
5604 5605 5605 5606 5607 5608 5609 5610 5612 5613 5615 5617 5618 5620 5621 5623 5624 5625 5627 5628 5630 5632 5634 5636 5638 5639 5640 5642 5643 5645 5646 5648 5649 5650 5651 5651 5652 5652 5652 5652 5652 5651 5651
5593 5594 5594 5595 5596 5597 5598 5600 5601 5603 5605 5606 5608 5609 5611 5612 5613 5614 5615 5616 5618 5619 5622 5624 5625 5626 5628 5630 5631 5632 5634 5635 5636 5637 5638 5638 5639 5639 5639 5639 5638 5638 5638
5581 5582 5583 5584 5585 5587 5588 5589 5590 5592 5594 5596 5597 5599 5600 5601 5602 5604 5604 5605 5606 5607 5610 5612 5613 5614 5615 5616 5618 5619 5621 5622 5623 5624 5625 5625 5626 5626 5626 5625 5625 5624 5624
5570 5571 5572 5573 5574 5576 5577 5578 5580 5581 5583 5584 5586 5588 5589 5590 5592 5593 5594 5594 5595 5596 5597 5599 5601 5602 5603 5604 5605 5606 5607 5608 5609 5610 5611 5612 5612 5612 5612 5611 5611 5610 5610
5560 5560 5561 5562 5563 5565 5566 5567 5568 5570 5572 5573 5575 5576 5578 5579 5581 5582 5583 5584 5584 5585 5586 5587 5588 5589 5590 5591 5592 5593 5594 5595 5596 5597 5597 5598 5598 5598 5598 5597 5597 5596 5595
5549 5550 5551 5552 5553 5554 5555 5557 5558 5559 5561 5562 5564 5565 5567 5569 5570 5571 5572 5573 5573 5574 5574 5575 5576 5577 5578 5579 5580 5581 5581 5582 5583 5583 5583 5584 5584 5584 5583 5582 5582 5581 5581
5540 5540 5541 5541 5543 5544 5545 5546 5548 5549 5551 5552 5553 5555 5556 5557 5559 5560 5561 5562 5562 5563 5564 5565 5565 5566 5566 5567 5567 5568 5568 5569 5570 5570 5569 5570 5569 5569 5569 5569 5568 5567 5567
5530 5531 5531 5532 5533 5534 5535 5536 5538 5539 5540 5542 5543 5544 5545 5547 5548 5549 5550 5551 5552 5552 5553 5554 5554 5555 5555 5555 5556 5556 5556 5556 5557 5557 5556 5557 5556 5556 5556 5555 5554 5554 5554
5521 5521 5522 5522 5523 5524 5525 5526 5528 5529 5530 5531 5533 5534 5535 5536 5537 5539 5540 5541 5541 5542 5542 5543 5543 5543 5543 5543 5543 5544 5544 5545 5545 5544 5544 5545 5544 5544 5543 5542 5542 5541 5541
5511 5512 5512 5513 5514 5515 5516 5517 5518 5520 5521 5522 5523 5524 5525 5526 5527 5528 5529 5530 5531 5531 5531 5531 5532 5532 5532 5532 5532 5532 5532 5533 5533 5533 5532 5533 5533 5532 5532 5531 5530 5529 5529
5502 5503 5503 5504 5505 5506 5507 5508 5509 5511 5512 5513 5514 5515 5516 5516 5517 5518 5519 5520 5520 5521 5521 5521 5521 5521 5521 5521 5521 5521 5521 5522 5522 5523 5522 5522 5521 5521 5521 5520 5519 5518 5517